FW6276 Weather Reports


time (UTC)temp
C
wind
direction
speed
KPH
gust
KPH
rain 1hr
cm
rain 24hr
cm
rain mn
cm
humidity
%
barometer
mb
20260505125007 18 150 4.8 11.3 0.00 0.00 0.00 65 1018.2
20260505124513 18 192 3.2 12.9 0.00 0.00 0.00 65 1018.2
20260505124004 18 199 3.2 12.9 0.00 0.00 0.00 67 1018.2
20260505123504 18 214 4.8 9.7 0.00 0.00 0.00 66 1018.2
20260505123011 18 190 3.2 9.7 0.00 0.00 0.00 66 1018.2
20260505122503 17 157 3.2 9.7 0.00 0.00 0.00 69 1018.1
20260505122005 17 153 3.2 4.8 0.00 0.00 0.00 69 1018.1
20260505121521 16 159 1.6 4.8 0.00 0.00 0.00 71 1018.0
20260505121007 16 112 1.6 3.2 0.00 0.00 0.00 71 1018.0
20260505120510 16 129 1.6 3.2 0.00 0.00 0.00 72 1017.9
20260505120033 16 150 1.6 3.2 0.00 0.00 0.00 71 1017.9
20260505115509 16 150 1.6 1.6 0.00 0.00 0.00 71 1017.9
20260505115012 16 150 1.6 1.6 0.00 0.00 0.00 69 1017.9
20260505114533 16 169 0.0 1.6 0.00 0.00 0.00 69 1018.0
20260505114010 16 179 0.0 1.6 0.00 0.00 0.00 71 1018.0
20260505113508 15 159 0.0 1.6 0.00 0.00 0.00 72 1017.9
20260505113011 15 158 1.6 1.6 0.00 0.00 0.00 73 1017.9
20260505112503 15 155 1.6 1.6 0.00 0.00 0.00 73 1017.8
20260505112003 15 192 0.0 1.6 0.00 0.00 0.00 73 1017.7
20260505111517 15 192 0.0 1.6 0.00 0.00 0.00 73 1017.8
20260505111007 15 192 0.0 1.6 0.00 0.00 0.00 72 1017.6
20260505110507 15 229 0.0 1.6 0.00 0.00 0.00 73 1017.6
20260505102010 10 229 1.6 1.6 0.00 0.00 0.00 85 1017.1
20260505101515 11 233 0.0 1.6 0.00 0.00 0.00 84 1017.1
20260505101006 11 233 0.0 1.6 0.00 0.00 0.00 84 1016.9
20260505100505 11 231 0.0 3.2 0.00 0.00 0.00 83 1016.9
20260505100018 11 231 1.6 3.2 0.00 0.00 0.00 83 1016.8
20260505095507 11 232 1.6 3.2 0.00 0.00 0.00 83 1016.8
20260505095010 11 233 1.6 3.2 0.00 0.00 0.00 83 1016.7
20260505094523 11 229 1.6 3.2 0.00 0.00 0.00 83 1016.7
20260505094007 11 222 1.6 3.2 0.00 0.00 0.00 83 1016.7
20260505093511 11 225 1.6 3.2 0.00 0.00 0.00 83 1016.7
20260505093027 11 224 0.0 1.6 0.00 0.00 0.00 82 1016.7
20260505092508 11 223 1.6 1.6 0.00 0.00 0.00 82 1016.7
20260505092013 11 222 1.6 1.6 0.00 0.00 0.00 82 1016.7
20260505091530 11 216 0.0 1.6 0.00 0.00 0.00 81 1016.6
20260505091013 11 210 0.0 1.6 0.00 0.00 0.00 81 1016.6
20260505090509 12 213 0.0 1.6 0.00 0.00 0.00 81 1016.7
20260505090012 12 213 0.0 1.6 0.00 0.00 0.00 79 1016.7
20260505085504 12 213 0.0 1.6 0.00 0.00 0.00 78 1016.7
20260505085007 12 213 0.0 1.6 0.00 0.00 0.00 78 1016.7
20260505084519 12 213 0.0 1.6 0.00 0.00 0.00 77 1016.6
20260505084012 12 213 0.0 1.6 0.00 0.00 0.00 77 1016.6
20260505083510 12 239 0.0 1.6 0.00 0.00 0.00 77 1016.6
20260505083026 13 238 0.0 1.6 0.00 0.00 0.00 76 1016.6
20260505082507 13 238 0.0 1.6 0.00 0.00 0.00 77 1016.6
20260505082008 13 238 1.6 1.6 0.00 0.00 0.00 76 1016.6
20260505081536 13 179 0.0 3.2 0.00 0.00 0.00 76 1016.6
20260505081009 13 216 1.6 4.8 0.00 0.00 0.00 75 1016.5
20260505080509 13 237 0.0 4.8 0.00 0.00 0.00 75 1016.5
20260505080044 13 210 1.6 4.8 0.00 0.00 0.00 74 1016.5
20260505075509 13 219 1.6 4.8 0.00 0.00 0.00 74 1016.5
20260505075011 13 210 1.6 4.8 0.00 0.00 0.00 74 1016.4
20260505074516 13 195 1.6 4.8 0.00 0.00 0.00 74 1016.3
20260505074007 13 164 1.6 4.8 0.00 0.00 0.00 73 1016.2
20260505073505 14 188 3.2 6.4 0.00 0.00 0.00 72 1016.2
20260505073021 14 219 1.6 6.4 0.00 0.00 0.00 72 1016.2
20260505072502 14 191 1.6 6.4 0.00 0.00 0.00 72 1016.3
20260505072003 14 192 3.2 6.4 0.00 0.00 0.00 72 1016.3
20260505071505 14 229 1.6 6.4 0.00 0.00 0.00 72 1016.3
20260505071005 14 134 1.6 9.7 0.00 0.00 0.00 71 1016.3
20260505070503 15 188 3.2 9.7 0.00 0.00 0.00 70 1016.3
20260505070008 15 182 3.2 9.7 0.00 0.00 0.00 71 1016.3
20260505065503 15 249 3.2 9.7 0.00 0.00 0.00 70 1016.3
20260505065003 15 148 3.2 4.8 0.00 0.00 0.00 70 1016.4
20260505064512 15 206 3.2 8.0 0.00 0.00 0.00 70 1016.3
20260505064007 15 187 3.2 8.0 0.00 0.00 0.00 70 1016.3
20260505063506 15 188 3.2 8.0 0.00 0.00 0.00 70 1016.3
20260505063016 15 184 1.6 8.0 0.00 0.00 0.00 70 1016.2
20260505062508 15 192 4.8 8.0 0.00 0.00 0.00 69 1016.3
20260505062006 15 171 3.2 6.4 0.00 0.00 0.00 70 1016.3
20260505061521 15 217 3.2 6.4 0.00 0.00 0.00 69 1016.2
20260505061003 15 166 1.6 6.4 0.00 0.00 0.00 69 1016.2
20260505060504 15 259 1.6 6.4 0.00 0.00 0.00 69 1016.3
20260505060004 15 162 1.6 6.4 0.00 0.00 0.00 68 1016.2
20260505055505 15 191 3.2 8.0 0.00 0.00 0.00 68 1016.3
20260505055003 16 238 3.2 8.0 0.00 0.00 0.00 67 1016.3
20260505054510 16 194 3.2 9.7 0.00 0.00 0.00 66 1016.4
20260505054003 16 195 3.2 11.3 0.00 0.00 0.00 66 1016.4
20260505053504 16 203 3.2 11.3 0.00 0.00 0.00 65 1016.5
20260505053018 16 186 4.8 9.7 0.00 0.00 0.00 65 1016.5
20260505052513 16 169 4.8 9.7 0.00 0.00 0.00 66 1016.6
20260505052007 16 243 4.8 9.7 0.00 0.00 0.00 64 1016.6
20260505051522 16 174 3.2 9.7 0.00 0.00 0.00 64 1016.7
20260505051009 16 197 3.2 9.7 0.00 0.00 0.00 64 1016.7
20260505050511 16 234 3.2 9.7 0.00 0.00 0.00 65 1016.7
20260505041531 17 136 6.4 12.9 0.00 0.00 0.00 62 1016.8
20260505041004 17 222 6.4 12.9 0.00 0.00 0.00 62 1016.8
20260505040507 17 193 4.8 12.9 0.00 0.00 0.00 62 1016.8
20260505040020 17 206 4.8 12.9 0.00 0.00 0.00 62 1016.7
20260505035507 17 160 4.8 17.7 0.00 0.00 0.00 62 1016.7
20260505035008 17 99 6.4 17.7 0.00 0.00 0.00 64 1016.8
20260505034524 17 190 4.8 11.3 0.00 0.00 0.00 62 1016.8
20260505034006 17 187 4.8 11.3 0.00 0.00 0.00 63 1016.8
20260505033507 17 214 4.8 8.0 0.00 0.00 0.00 63 1016.9
20260505033007 17 198 1.6 8.0 0.00 0.00 0.00 62 1016.8
20260505032504 17 129 4.8 8.0 0.00 0.00 0.00 62 1016.8
20260505032005 17 186 4.8 8.0 0.00 0.00 0.00 62 1016.8
20260505031511 17 229 3.2 8.0 0.00 0.00 0.00 63 1016.8
20260505031009 17 231 3.2 8.0 0.00 0.00 0.00 62 1016.8
20260505030504 17 244 4.8 8.0 0.00 0.00 0.00 61 1016.7
20260505030017 17 257 3.2 8.0 0.00 0.00 0.00 61 1016.7
20260505025505 17 191 3.2 8.0 0.00 0.00 0.00 61 1016.7
20260505025007 17 181 3.2 8.0 0.00 0.00 0.00 60 1016.7
20260505024522 17 175 3.2 6.4 0.00 0.00 0.00 59 1016.7
20260505024007 17 134 3.2 8.0 0.00 0.00 0.00 59 1016.7
20260505023507 18 141 3.2 9.7 0.00 0.00 0.00 58 1016.7
20260505023033 18 176 1.6 9.7 0.00 0.00 0.00 57 1016.7
20260505022504 18 202 3.2 6.4 0.00 0.00 0.00 55 1016.6
20260505022004 18 153 3.2 8.0 0.00 0.00 0.00 55 1016.6
20260505021509 18 191 3.2 9.7 0.00 0.00 0.00 54 1016.5
20260505021006 18 209 3.2 9.7 0.00 0.00 0.00 52 1016.5
20260505020503 18 197 3.2 9.7 0.00 0.00 0.00 51 1016.5
20260505020018 18 186 3.2 8.0 0.00 0.00 0.00 49 1016.4
20260505015507 18 167 3.2 4.8 0.00 0.00 0.00 47 1016.3
20260505015005 18 210 1.6 6.4 0.00 0.00 0.00 47 1016.2
20260505014518 18 234 1.6 6.4 0.00 0.00 0.00 47 1016.3
20260505014008 18 174 1.6 3.2 0.00 0.00 0.00 47 1016.1
20260505013507 18 207 1.6 4.8 0.00 0.00 0.00 46 1016.0
20260505013025 18 193 1.6 4.8 0.00 0.00 0.00 46 1016.0
20260505012512 19 219 1.6 3.2 0.00 0.00 0.00 45 1015.9
20260505012011 19 172 1.6 3.2 0.00 0.00 0.00 45 1015.8
20260505011530 19 214 0.0 4.8 0.00 0.00 0.00 45 1015.7
20260505011004 19 193 1.6 4.8 0.00 0.00 0.00 45 1015.7
20260505010504 20 212 1.6 3.2 0.00 0.00 0.00 44 1015.6
20260505010010 20 248 1.6 3.2 0.00 0.00 0.00 43 1015.6
20260505005504 20 203 1.6 3.2 0.00 0.00 0.00 43 1015.5
20260505005006 20 200 1.6 3.2 0.00 0.00 0.00 42 1015.5
20260505004527 20 197 0.0 3.2 0.00 0.00 0.00 42 1015.4
20260505004004 20 219 0.0 3.2 0.00 0.00 0.00 42 1015.4
20260505003506 21 202 1.6 4.8 0.00 0.00 0.00 41 1015.4
20260505003019 21 183 1.6 4.8 0.00 0.00 0.00 41 1015.3
20260505002510 21 191 1.6 4.8 0.00 0.00 0.00 41 1015.2
20260505002008 21 198 1.6 4.8 0.00 0.00 0.00 41 1015.2
20260505001522 21 189 1.6 6.4 0.00 0.00 0.00 40 1015.2
20260505001010 21 190 3.2 9.7 0.00 0.00 0.00 41 1015.3
20260505000509 22 195 1.6 9.7 0.00 0.00 0.00 40 1015.2
20260505000031 22 188 3.2 8.0 0.00 0.00 0.00 38 1015.2
20260504235504 22 170 1.6 9.7 0.00 0.00 0.00 38 1015.1
20260504235005 22 177 3.2 9.7 0.00 0.00 0.00 39 1015.0
20260504234512 22 212 6.4 9.7 0.00 0.00 0.00 37 1015.0
20260504234004 23 186 3.2 11.3 0.00 0.00 0.00 37 1014.9
20260504233508 23 184 4.8 14.5 0.00 0.00 0.00 35 1014.7
20260504233017 23 204 6.4 14.5 0.00 0.00 0.00 36 1014.6
20260504232506 23 176 3.2 16.1 0.00 0.00 0.00 35 1014.6
20260504232011 23 173 4.8 16.1 0.00 0.00 0.00 36 1014.6
20260504231525 23 163 4.8 12.9 0.00 0.00 0.00 35 1014.5
20260504231007 23 195 4.8 12.9 0.00 0.00 0.00 35 1014.4
20260504230507 23 184 4.8 12.9 0.00 0.00 0.00 33 1014.4
20260504230024 24 173 6.4 14.5 0.00 0.00 0.00 33 1014.5
20260504225510 24 188 8.0 14.5 0.00 0.00 0.00 34 1014.5
20260504225008 24 150 6.4 16.1 0.00 0.00 0.00 31 1014.4
20260504224529 25 190 6.4 16.1 0.00 0.00 0.00 31 1014.4
20260504224005 25 175 4.8 16.1 0.00 0.00 0.00 30 1014.4
20260504223505 25 194 4.8 12.9 0.00 0.00 0.00 32 1014.4
20260504223014 25 203 4.8 16.1 0.00 0.00 0.00 31 1014.4
20260504222509 25 164 6.4 17.7 0.00 0.00 0.00 29 1014.5
20260504222009 25 229 11.3 17.7 0.00 0.00 0.00 29 1014.4
20260504221520 25 163 9.7 16.1 0.00 0.00 0.00 28 1014.4
20260504221007 25 189 8.0 16.1 0.00 0.00 0.00 29 1014.4
20260504220507 25 195 6.4 17.7 0.00 0.00 0.00 28 1014.4
20260504220024 26 117 6.4 17.7 0.00 0.00 0.00 29 1014.4
20260504215503 26 181 6.4 17.7 0.00 0.00 0.00 27 1014.4
20260504215004 26 229 4.8 16.1 0.00 0.00 0.00 27 1014.4
20260504214511 26 180 8.0 16.1 0.00 0.00 0.00 29 1014.4
20260504214005 25 227 8.0 22.5 0.00 0.00 0.00 28 1014.4
20260504213504 26 226 6.4 22.5 0.00 0.00 0.00 30 1014.3
20260504213033 26 91 6.4 16.1 0.00 0.00 0.00 27 1014.3
20260504212505 26 242 6.4 14.5 0.00 0.00 0.00 25 1014.3
20260504212009 26 176 4.8 17.7 0.00 0.00 0.00 30 1014.4
20260504211518 26 190 9.7 17.7 0.00 0.00 0.00 28 1014.3
20260504211007 26 222 8.0 14.5 0.00 0.00 0.00 26 1014.4
20260504210508 26 195 4.8 19.3 0.00 0.00 0.00 25 1014.4
20260504210023 26 158 9.7 19.3 0.00 0.00 0.00 26 1014.6
20260504205507 26 203 11.3 16.1 0.00 0.00 0.00 25 1014.6
20260504205007 26 173 3.2 19.3 0.00 0.00 0.00 25 1014.6
20260504204527 26 194 6.4 19.3 0.00 0.00 0.00 26 1014.6
20260504204003 26 240 3.2 12.9 0.00 0.00 0.00 26 1014.7
20260504203508 26 169 6.4 12.9 0.00 0.00 0.00 28 1014.4
20260504203011 26 184 6.4 14.5 0.00 0.00 0.00 26 1014.6
20260504202504 26 221 6.4 14.5 0.00 0.00 0.00 28 1014.7
20260504202005 26 209 9.7 14.5 0.00 0.00 0.00 27 1014.7
20260504201521 26 186 6.4 12.9 0.00 0.00 0.00 24 1014.7
20260504201010 26 147 6.4 14.5 0.00 0.00 0.00 26 1014.7
20260504200507 26 181 8.0 14.5 0.00 0.00 0.00 23 1014.8
20260504200019 26 259 8.0 12.9 0.00 0.00 0.00 25 1014.9
20260504195506 26 217 4.8 16.1 0.00 0.00 0.00 27 1015.0
20260504195011 26 246 6.4 16.1 0.00 0.00 0.00 27 1015.1
20260504194522 26 229 4.8 17.7 0.00 0.00 0.00 30 1015.1
20260504194008 26 37 9.7 17.7 0.00 0.00 0.00 26 1015.1
20260504193508 27 172 3.2 14.5 0.00 0.00 0.00 26 1015.1
20260504193025 27 112 4.8 12.9 0.00 0.00 0.00 25 1015.2
20260504192503 26 117 3.2 17.7 0.00 0.00 0.00 25 1015.2
20260504192004 26 176 3.2 17.7 0.00 0.00 0.00 25 1015.3
20260504191507 26 168 4.8 12.9 0.00 0.00 0.00 25 1015.2
20260504191003 26 188 4.8 19.3 0.00 0.00 0.00 25 1015.4
20260504190504 26 180 9.7 19.3 0.00 0.00 0.00 25 1015.4
20260504190014 26 173 6.4 11.3 0.00 0.00 0.00 25 1015.4
20260504185510 26 186 3.2 11.3 0.00 0.00 0.00 26 1015.5
20260504185011 26 180 3.2 11.3 0.00 0.00 0.00 28 1015.6
20260504184518 26 231 4.8 9.7 0.00 0.00 0.00 29 1015.8
20260504184007 26 58 1.6 8.0 0.00 0.00 0.00 28 1015.8
20260504183511 26 195 4.8 8.0 0.00 0.00 0.00 27 1015.8
20260504183024 26 171 3.2 9.7 0.00 0.00 0.00 24 1015.8
20260504182509 26 199 6.4 9.7 0.00 0.00 0.00 26 1015.8
20260504182010 26 171 3.2 17.7 0.00 0.00 0.00 30 1015.8
20260504181527 26 139 3.2 17.7 0.00 0.00 0.00 27 1015.9
20260504181010 25 197 8.0 17.7 0.00 0.00 0.00 25 1015.9
20260504180504 26 181 8.0 14.5 0.00 0.00 0.00 26 1015.8
20260504180010 26 198 3.2 9.7 0.00 0.00 0.00 27 1015.9
20260504175505 26 85 1.6 9.7 0.00 0.00 0.00 27 1016.1
20260504175009 26 326 3.2 8.0 0.00 0.00 0.00 29 1016.2
20260504174519 26 160 3.2 12.9 0.00 0.00 0.00 32 1016.3
20260504174009 25 204 4.8 12.9 0.00 0.00 0.00 29 1016.3
20260504173513 25 127 3.2 16.1 0.00 0.00 0.00 32 1016.3
20260504173033 26 195 8.0 16.1 0.00 0.00 0.00 28 1016.3
20260504172508 26 150 1.6 8.0 0.00 0.00 0.00 33 1016.4
20260504172009 25 217 3.2 14.5 0.00 0.00 0.00 32 1016.5
20260504171525 25 264 4.8 14.5 0.00 0.00 0.00 31 1016.6
20260504171009 25 175 3.2 9.7 0.00 0.00 0.00 30 1016.6
20260504170509 25 143 3.2 12.9 0.00 0.00 0.00 30 1016.7
20260504151013 24 27 1.6 8.0 0.00 0.00 0.00 38 1018.0
20260504150511 23 211 3.2 8.0 0.00 0.00 0.00 35 1018.0
20260504141008 20 116 4.8 8.0 0.00 0.00 0.00 48 1018.2
20260504140508 20 105 1.6 6.4 0.00 0.00 0.00 51 1018.2